Regional Weather Roundup
Issued by NWS Burlington, VT

Home | Current Version | Previous Version | Text Only | Print | Product List | Glossary On
Versions: 1 2 3 4 5 6 7 8 9 10 11 12 13 14 15 16 17 18 19 20 21 22 23 24 25 26 27 28 29 30 31 32 33 34 35 36 37 38 39 40 41 42 43 44 45 46 47 48 49 50
000
ASUS41 KBTV 280730
RWRBTV
VERMONT REGIONAL WEATHER ROUNDUP
NATIONAL WEATHER SERVICE BURLINGTON VT
300 AM EDT SUN MAY 28 2017

NOTE: "FAIR" INDICATES FEW OR NO CLOUDS BELOW 12,000 FEET WITH NO
SIGNIFICANT WEATHER AND/OR OBSTRUCTIONS TO VISIBILITY.

* THESE REPORTS ARE NOT UNDER NWS QUALITY CONTROL AND/OR DO NOT
  REPORT WEATHER SUCH AS PRECIPITATION AND FOG.

VTZ001>019-280800-
_____VERMONT_____


CITY           SKY/WX    TMP DP  RH WIND       PRES   REMARKS
BURLINGTON     PTCLDY    52  50  93 E3        29.90R
MONTPELIER     FOG       45  45 100 CALM      29.94F VSB 1
MORRISVILLE    FOG       44  43  96 CALM      29.93R VSB 1/4
ST. JOHNSBURY*   N/A     49  48  97 MISG      29.89R
LYNDONVILLE*   FAIR      48  47  96 CALM      29.92S
MIDDLEBURY*    FAIR      49  49  99 CALM      29.90R FOG
RUTLAND*       CLOUDY    56  52  86 E3        29.92R
SPRINGFIELD    CLOUDY    55  53  93 CALM      29.91R
HIGHGATE*      FAIR      50  50  97 CALM      29.88S
NEWPORT*       FAIR      46  46  98 CALM      29.91S
BENNINGTON     CLOUDY    57  54  89 CALM      29.91R
SUTTON*          N/A     48 N/A N/A MISG        N/A
ISLAND POND*     N/A     41 N/A N/A CALM        N/A
GALLUP MILLS*    N/A     43 N/A N/A MISG        N/A
UNION VILLAGE*   N/A     48 N/A N/A MISG        N/A
MT. MANSFIELD*   N/A     50 N/A N/A NW10        N/A

_____LAKE CHAMPLAIN_____


CITY           SKY/WX    TMP DP  RH WIND       PRES   REMARKS
BURTON ISLAND*   N/A     55  52  88 S5          N/A
COLCHESTER RF*   N/A     55  54  94 SE7         N/A
DIAMOND ISL*     N/A     54  52  94 S2          N/A

$$

NYZ007-026>031-035-052-083-087-280800-
_____NORTHERN NEW YORK_____


CITY           SKY/WX    TMP DP  RH WIND       PRES   REMARKS
PLATTSBURGH    CLEAR     48  46  93 CALM      29.88R
SARANAC LAKE   FOG       40  40 100 S3        29.91F VSB 1/4
MASSENA        CLEAR     54  51  90 SW6       29.90R
OGDENSBURG*    FAIR      52  50  94 CALM      29.88S
POTSDAM*       CLEAR     52  52 100 SW3       29.88F
STARK FALLS*     N/A     52 N/A N/A SE7         N/A
WATERTOWN      CLEAR     46  46 100 CALM      29.89F
FT DRUM        CLEAR     50  46  87 S3        29.89F
ALBANY         CLOUDY    61  54  77 CALM      29.90S
GLENS FALLS    CLOUDY    57  54  89 CALM      29.89

$$
NHZ002-005-011-280800-
_____NEW HAMPSHIRE_____


CITY           SKY/WX    TMP DP  RH WIND       PRES   REMARKS
LEBANON        CLOUDY    52  51  97 CALM      29.90R
KEENE          CLOUDY    56  55  97 CALM      29.92R
MT WASHINGTON  FOG       37  37 100 NW14        N/A  VSB 1/16WCI  29
PLYMOUTH       CLOUDY    49  48  97 CALM      29.93R
WHITEFIELD     PTCLDY    44  41  89 CALM      29.91R

$$

_____REGIONAL QUEBEC LOCATIONS_____


CITY           SKY/WX    TMP DP  RH WIND       PRES   REMARKS
MONTREAL       PTCLDY    57  52  82 SW5       29.85S
QUEBEC CITY    MOCLDY    52  45  76 NE3       29.86R
SHERBROOKE     CLEAR     43  43 100 E3        29.88S

_____REGIONAL ONTARIO LOCATIONS_____


CITY           SKY/WX    TMP DP  RH WIND       PRES   REMARKS
OTTAWA         CLEAR     54  50  87 SW6       29.85F

______KEY______
VSB  - VISIBILITY IN MILES
WCI  - WIND CHILL INDEX
HX   - HEAT INDEX
$$
NNNN




USA.gov is the U.S. government's official web portal to all federal, state and local government web resources and services.